Time,TemperatureF,DewpointF,PressureIn,WindDirection,WindDirectionDegrees,WindSpeedMPH,WindSpeedGustMPH,Humidity,HourlyPrecipIn,Conditions,Clouds,dailyrainin,SolarRadiationWatts/m^2,SoftwareType,DateUTC
2013-01-21 00:04:00,32.0,21.0,-100.00,NNW,342,6.0,7.0,64,0.00,,,0.00,0.000000,,2013-01-21 05:04:00,
2013-01-21 00:34:00,33.0,23.0,-100.00,North,353,4.0,8.0,66,0.00,,,0.00,0.000000,,2013-01-21 05:34:00,
2013-01-21 00:43:00,33.0,23.0,-100.00,North,353,4.0,8.0,66,0.00,,,0.00,0.000000,,2013-01-21 05:43:00,
2013-01-21 00:53:00,33.0,23.0,-100.00,North,353,4.0,8.0,66,0.00,,,0.00,0.000000,,2013-01-21 05:53:00,
2013-01-21 01:03:00,33.0,23.0,-100.00,North,353,4.0,8.0,66,0.00,,,0.00,0.000000,,2013-01-21 06:03:00,
2013-01-21 01:33:00,32.0,23.0,-100.00,North,7,3.0,8.0,70,0.00,,,0.00,0.000000,,2013-01-21 06:33:00,
2013-01-21 01:43:00,32.0,23.0,-100.00,North,7,3.0,8.0,70,0.00,,,0.00,0.000000,,2013-01-21 06:43:00,
2013-01-21 01:53:00,32.0,23.0,-100.00,North,7,3.0,8.0,70,0.00,,,0.00,0.000000,,2013-01-21 06:53:00,
2013-01-21 02:03:00,32.0,23.0,-100.00,North,7,3.0,8.0,70,0.00,,,0.00,0.000000,,2013-01-21 07:03:00,
2013-01-21 02:33:00,32.0,23.0,-100.00,North,359,4.0,6.0,68,0.00,,,0.00,0.000000,,2013-01-21 07:33:00,
2013-01-21 02:43:00,32.0,23.0,-100.00,North,359,4.0,6.0,68,0.00,,,0.00,0.000000,,2013-01-21 07:43:00,
2013-01-21 02:53:00,32.0,23.0,-100.00,North,359,4.0,6.0,68,0.00,,,0.00,0.000000,,2013-01-21 07:53:00,
2013-01-21 03:03:00,32.0,23.0,-100.00,North,359,4.0,6.0,68,0.00,,,0.00,0.000000,,2013-01-21 08:03:00,
2013-01-21 03:33:00,32.0,22.0,-100.00,North,353,4.0,7.0,65,0.00,,,0.00,0.000000,,2013-01-21 08:33:00,
2013-01-21 03:43:00,32.0,22.0,-100.00,North,353,4.0,7.0,65,0.00,,,0.00,0.000000,,2013-01-21 08:43:00,
2013-01-21 03:53:00,32.0,22.0,-100.00,North,353,4.0,7.0,65,0.00,,,0.00,0.000000,,2013-01-21 08:53:00,
2013-01-21 04:03:00,32.0,22.0,-100.00,North,353,4.0,7.0,65,0.00,,,0.00,0.000000,,2013-01-21 09:03:00,
2013-01-21 04:33:00,33.0,23.0,-100.00,NNE,30,4.0,7.0,66,0.00,,,0.00,0.000000,,2013-01-21 09:33:00,
2013-01-21 04:43:00,33.0,23.0,-100.00,NNE,30,4.0,7.0,66,0.00,,,0.00,0.000000,,2013-01-21 09:43:00,
2013-01-21 04:53:00,33.0,23.0,-100.00,NNE,30,4.0,7.0,66,0.00,,,0.00,0.000000,,2013-01-21 09:53:00,
2013-01-21 05:02:00,33.0,23.0,-100.00,NNE,30,4.0,7.0,66,0.00,,,0.00,0.000000,,2013-01-21 10:02:00,
2013-01-21 05:33:00,35.0,11.0,-100.00,North,354,2.0,6.0,36,0.00,,,0.00,0.000000,,2013-01-21 10:33:00,
2013-01-21 05:43:00,35.0,11.0,-100.00,North,354,2.0,6.0,36,0.00,,,0.00,0.000000,,2013-01-21 10:43:00,
2013-01-21 05:53:00,35.0,11.0,-100.00,North,354,2.0,6.0,36,0.00,,,0.00,0.000000,,2013-01-21 10:53:00,
2013-01-21 06:03:00,35.0,11.0,-100.00,North,354,2.0,6.0,36,0.00,,,0.00,0.000000,,2013-01-21 11:03:00,
2013-01-21 06:33:00,31.0,21.0,-100.00,North,0,4.0,5.0,65,0.00,,,0.00,0.000000,,2013-01-21 11:33:00,
2013-01-21 06:43:00,31.0,21.0,-100.00,North,0,4.0,5.0,65,0.00,,,0.00,0.000000,,2013-01-21 11:43:00,
2013-01-21 06:53:00,31.0,21.0,-100.00,North,0,4.0,5.0,65,0.00,,,0.00,0.000000,,2013-01-21 11:53:00,
2013-01-21 07:03:00,31.0,21.0,-100.00,North,0,4.0,5.0,65,0.00,,,0.00,0.000000,,2013-01-21 12:03:00,
2013-01-21 07:33:00,32.0,15.0,-100.00,NNW,338,3.0,4.0,48,0.00,,,0.00,0.000000,,2013-01-21 12:33:00,
2013-01-21 07:43:00,32.0,15.0,-100.00,NNW,338,3.0,4.0,48,0.00,,,0.00,0.000000,,2013-01-21 12:43:00,
2013-01-21 07:53:00,32.0,15.0,-100.00,NNW,338,3.0,4.0,48,0.00,,,0.00,0.000000,,2013-01-21 12:53:00,
2013-01-21 08:03:00,32.0,15.0,-100.00,NNW,338,3.0,4.0,48,0.00,,,0.00,0.000000,,2013-01-21 13:03:00,
2013-01-21 08:33:00,31.0,20.0,-100.00,NNW,340,6.0,7.0,64,0.00,,,0.00,5.000000,,2013-01-21 13:33:00,
2013-01-21 08:43:00,31.0,20.0,-100.00,NNW,340,6.0,7.0,64,0.00,,,0.00,5.000000,,2013-01-21 13:43:00,
2013-01-21 08:54:00,31.0,20.0,-100.00,NNW,340,6.0,7.0,64,0.00,,,0.00,5.000000,,2013-01-21 13:54:00,
2013-01-21 09:04:00,31.0,20.0,-100.00,NNW,340,6.0,7.0,64,0.00,,,0.00,5.000000,,2013-01-21 14:04:00,
2013-01-21 09:33:00,34.0,21.0,-100.00,NNW,334,4.0,9.0,58,0.00,,,0.00,119.000000,,2013-01-21 14:33:00,
2013-01-21 09:43:00,34.0,21.0,-100.00,NNW,334,4.0,9.0,58,0.00,,,0.00,119.000000,,2013-01-21 14:43:00,
2013-01-21 09:54:00,34.0,21.0,-100.00,NNW,334,4.0,9.0,58,0.00,,,0.00,119.000000,,2013-01-21 14:54:00,
2013-01-21 10:03:00,34.0,21.0,-100.00,NNW,334,4.0,9.0,58,0.00,,,0.00,119.000000,,2013-01-21 15:03:00,
2013-01-21 10:33:00,37.0,20.0,-100.00,NNW,333,5.0,9.0,50,0.00,,,0.00,304.000000,,2013-01-21 15:33:00,
2013-01-21 10:43:00,37.0,20.0,-100.00,NNW,333,5.0,9.0,50,0.00,,,0.00,304.000000,,2013-01-21 15:43:00,
2013-01-21 10:53:00,37.0,20.0,-100.00,NNW,333,5.0,9.0,50,0.00,,,0.00,304.000000,,2013-01-21 15:53:00,
2013-01-21 11:04:00,37.0,20.0,-100.00,NNW,333,5.0,9.0,50,0.00,,,0.00,304.000000,,2013-01-21 16:04:00,
2013-01-21 11:33:00,40.0,22.0,-100.00,NNW,329,5.0,11.0,49,0.00,,,0.00,471.000000,,2013-01-21 16:33:00,
2013-01-21 11:44:00,40.0,22.0,-100.00,NNW,329,5.0,11.0,49,0.00,,,0.00,471.000000,,2013-01-21 16:44:00,
2013-01-21 11:53:00,40.0,22.0,-100.00,NNW,329,5.0,11.0,49,0.00,,,0.00,471.000000,,2013-01-21 16:53:00,
2013-01-21 12:03:00,40.0,22.0,-100.00,NNW,329,5.0,11.0,49,0.00,,,0.00,471.000000,,2013-01-21 17:03:00,
2013-01-21 12:33:00,41.0,24.0,-100.00,NW,317,6.0,10.0,51,0.00,,,0.00,591.000000,,2013-01-21 17:33:00,
2013-01-21 12:43:00,41.0,24.0,-100.00,NW,317,6.0,10.0,51,0.00,,,0.00,591.000000,,2013-01-21 17:43:00,
2013-01-21 12:53:00,41.0,24.0,-100.00,NW,317,6.0,10.0,51,0.00,,,0.00,591.000000,,2013-01-21 17:53:00,
2013-01-21 13:03:00,41.0,24.0,-100.00,NW,317,6.0,10.0,51,0.00,,,0.00,591.000000,,2013-01-21 18:03:00,
2013-01-21 13:33:00,44.0,25.0,-100.00,NW,312,5.0,11.0,46,0.00,,,0.00,649.000000,,2013-01-21 18:33:00,
2013-01-21 13:43:00,44.0,25.0,-100.00,NW,312,5.0,11.0,46,0.00,,,0.00,649.000000,,2013-01-21 18:43:00,
2013-01-21 13:53:00,44.0,25.0,-100.00,NW,312,5.0,11.0,46,0.00,,,0.00,649.000000,,2013-01-21 18:53:00,
2013-01-21 14:03:00,44.0,25.0,-100.00,NW,312,5.0,11.0,46,0.00,,,0.00,649.000000,,2013-01-21 19:03:00,
2013-01-21 14:33:00,45.0,24.0,-100.00,NW,315,6.0,12.0,43,0.00,,,0.00,638.000000,,2013-01-21 19:33:00,
2013-01-21 14:43:00,45.0,24.0,-100.00,NW,315,6.0,12.0,43,0.00,,,0.00,638.000000,,2013-01-21 19:43:00,
2013-01-21 14:53:00,45.0,24.0,-100.00,NW,315,6.0,12.0,43,0.00,,,0.00,638.000000,,2013-01-21 19:53:00,
2013-01-21 15:03:00,45.0,24.0,-100.00,NW,315,6.0,12.0,43,0.00,,,0.00,638.000000,,2013-01-21 20:03:00,
2013-01-21 16:33:00,41.0,19.0,-100.00,NW,306,6.0,22.0,41,-99.99,,,0.00,430.000000,,2013-01-21 21:33:00,
2013-01-21 16:43:00,41.0,19.0,-100.00,NW,306,6.0,22.0,41,-99.99,,,0.00,430.000000,,2013-01-21 21:43:00,
2013-01-21 16:54:00,41.0,19.0,-100.00,NW,306,6.0,22.0,41,-99.99,,,0.00,430.000000,,2013-01-21 21:54:00,
2013-01-21 17:03:00,41.0,19.0,-100.00,NW,306,6.0,22.0,41,-99.99,,,0.00,430.000000,,2013-01-21 22:03:00,
2013-01-21 17:33:00,35.0,14.0,-100.00,NW,317,7.0,14.0,42,0.00,,,0.00,152.000000,,2013-01-21 22:33:00,
2013-01-21 17:43:00,35.0,14.0,-100.00,NW,317,7.0,14.0,42,0.00,,,0.00,152.000000,,2013-01-21 22:43:00,
2013-01-21 17:53:00,35.0,14.0,-100.00,NW,317,7.0,14.0,42,0.00,,,0.00,152.000000,,2013-01-21 22:53:00,
2013-01-21 18:03:00,35.0,14.0,-100.00,NW,317,7.0,14.0,42,0.00,,,0.00,152.000000,,2013-01-21 23:03:00,
2013-01-21 18:33:00,31.0,12.0,-100.00,NW,314,7.0,20.0,44,0.00,,,0.00,17.000000,,2013-01-21 23:33:00,
2013-01-21 18:43:00,31.0,12.0,-100.00,NW,314,7.0,20.0,44,0.00,,,0.00,17.000000,,2013-01-21 23:43:00,
2013-01-21 18:53:00,31.0,12.0,-100.00,NW,314,7.0,20.0,44,0.00,,,0.00,17.000000,,2013-01-21 23:53:00,
2013-01-21 19:03:00,31.0,12.0,-100.00,NW,314,7.0,20.0,44,0.00,,,0.00,17.000000,,2013-01-22 00:03:00,
2013-01-21 19:33:00,29.0,10.0,-100.00,NW,319,0.0,17.0,44,0.00,,,0.00,0.000000,,2013-01-22 00:33:00,
2013-01-21 19:43:00,29.0,10.0,-100.00,NW,319,0.0,17.0,44,0.00,,,0.00,0.000000,,2013-01-22 00:43:00,
2013-01-21 19:53:00,29.0,10.0,-100.00,NW,319,0.0,17.0,44,0.00,,,0.00,0.000000,,2013-01-22 00:53:00,
2013-01-21 20:02:00,29.0,10.0,-100.00,NW,319,0.0,17.0,44,0.00,,,0.00,0.000000,,2013-01-22 01:02:00,
2013-01-21 21:33:00,26.0,9.0,-100.00,NW,324,0.0,0.0,49,-99.99,,,0.00,0.000000,,2013-01-22 02:33:00,
2013-01-21 21:43:00,26.0,9.0,-100.00,NW,324,0.0,0.0,49,-99.99,,,0.00,0.000000,,2013-01-22 02:43:00,
2013-01-21 21:53:00,26.0,9.0,-100.00,NW,324,0.0,0.0,49,-99.99,,,0.00,0.000000,,2013-01-22 02:53:00,
2013-01-21 22:03:00,26.0,9.0,-100.00,NW,324,0.0,0.0,49,-99.99,,,0.00,0.000000,,2013-01-22 03:03:00,
2013-01-21 22:33:00,25.0,9.0,-100.00,NW,319,0.0,0.0,50,0.00,,,0.00,0.000000,,2013-01-22 03:33:00,
2013-01-21 22:43:00,25.0,9.0,-100.00,NW,319,0.0,0.0,50,0.00,,,0.00,0.000000,,2013-01-22 03:43:00,
2013-01-21 22:53:00,25.0,9.0,-100.00,NW,319,0.0,0.0,50,0.00,,,0.00,0.000000,,2013-01-22 03:53:00,
2013-01-21 23:03:00,25.0,9.0,-100.00,NW,319,0.0,0.0,50,0.00,,,0.00,0.000000,,2013-01-22 04:03:00,
2013-01-21 23:33:00,24.0,9.0,-100.00,NW,321,0.0,0.0,52,0.00,,,0.00,0.000000,,2013-01-22 04:33:00,
2013-01-21 23:43:00,24.0,9.0,-100.00,NW,321,0.0,0.0,52,0.00,,,0.00,0.000000,,2013-01-22 04:43:00,
2013-01-21 23:53:00,24.0,9.0,-100.00,NW,321,0.0,0.0,52,0.00,,,0.00,0.000000,,2013-01-22 04:53:00,